Location: Curicchi
(45.0167°N, 12.0500°E)
Time: 11:03:36
(UTC+00:00)

Cosmos 1763 Rocket - Pass Details

Date: 07 June 2020
Orbit: 733 x 780 km, 74.0° (Epoch: 05 July)

Event Time Altitude Azimuth Distance (km) Brightness Sun altitude
Exits shadow 00:05:58 33° 246° (WSW) 1,235 4.2 -21.0°
Maximum altitude 00:07:47 47° 296° (WNW) 974 4.1 -21.0°
Drops below altitude 10° 00:12:41 10° 11° (N) 2,245 7.1 -20.7°
Sets 00:15:08 0° 17° (NNE) 3,171 8.3 -20.6°
